Location: Newark
(34.0131°N, 4.3314°W)
Time: 05:41:27
(UTC+00:00)

Explorer 7 - Pass Details

Date: 20 October 2019
Orbit: 485 x 680 km, 50.3° (Epoch: 13 November)

Event Time Altitude Azimuth Distance (km) Brightness Sun altitude
Rises 11:35:37 0° 252° (WSW) 2,560 10.3 45.2°
Reaches altitude 10° 11:37:59 10° 263° (W) 1,668 9.4 45.3°
Maximum altitude 11:41:20 30° 326° (NNW) 886 7.8 45.4°
Drops below altitude 10° 11:44:41 10° 30° (NNE) 1,668 9.0 45.5°
Sets 11:47:03 0° 41° (NE) 2,561 9.9 45.5°
